Regional Weather Roundup
Issued by NWS

Current Version | Previous Version | Text Only | Print | Product List | Glossary On
Versions: 1 2 3 4 5 6 7 8 9 10 11 12 13 14 15 16 17 18 19 20 21 22 23 24 25 26 27 28 29 30 31 32 33 34 35 36 37 38 39 40 41 42 43 44 45 46 47 48 49 50
000
ASUS46 KSEW 240620
RWRWA

WASHINGTON REGIONAL WEATHER ROUNDUP
NATIONAL WEATHER SERVICE SEATTLE WA
1000 PM PST SUN FEB 23 2020

NOTE:"FAIR" INDICATES FEW OR NO CLOUDS BELOW 12,000 FEET WITH NO
SIGNIFICANT WEATHER AND/OR OBSTRUCTIONS TO VISIBILITY.

WAZ507-509-555>559-240700-
SEATTLE, TACOMA, EVERETT, AND VICINITY

CITY           SKY/WX    TMP DP  RH WIND       PRES   REMARKS
EVERETT        PTCLDY    39  34  82 S10       30.27R
6HR MIN TEMP:  39; 6HR MAX TEMP:  47;

BOEING FIELD   PTCLDY    43  35  73 S10G20    30.29R
6HR MIN TEMP:  43; 6HR MAX TEMP:  48;

RENTON         CLOUDY    44  35  70 S17G26    30.30R
6HR MIN TEMP:  43; 6HR MAX TEMP:  47;

SEATAC AIRPORT CLOUDY    43  36  76 S25G31    30.28R
6HR MIN TEMP:  43; 6HR MAX TEMP:  47;

JBLM-MCCHORD   PTCLDY    41  36  81 S17G26    30.35R
6HR MIN TEMP:  40; 6HR MAX TEMP:  46; 6HR PCP: TRACE;

PUYALLUP       CLOUDY    41  37  87 SW12G17   30.35R
BREMERTON      CLEAR     39  35  86 SW18G26   30.28
6HR MIN TEMP:  39; 6HR MAX TEMP:  44;

JBLM-FT LEWIS  MOCLDY    40  40  99 S16G23    30.35R
6HR MIN TEMP:  40; 6HR MAX TEMP:  45; 6HR PCP:  0.02;

TACOMA NARROWS PTCLDY    40  34  79 SW21G38   30.30R
6HR MIN TEMP:  40; 6HR MAX TEMP:  44; 6HR PCP: TRACE;

$$

WAZ001-503-506-510-514-515-240700-
NORTH INTERIOR

CITY           SKY/WX    TMP DP  RH WIND       PRES   REMARKS
BELLINGHAM     MOCLDY    45  38  76 VRB3      30.19R
6HR MIN TEMP:  44; 6HR MAX TEMP:  46; 6HR PCP:  0.01;

FRIDAY HARBOR  CLEAR     44  38  79 SW9G23    30.22R
6HR MIN TEMP:  43; 6HR MAX TEMP:  45; 6HR PCP: TRACE;

EASTSOUND      MOCLDY    45  39  81 S7        30.21R
PORT ANGELES   MOCLDY    42  35  76 W21G28    30.27R
6HR MIN TEMP:  42; 6HR MAX TEMP:  45; 6HR PCP:  0.01;

EDIZ HOOK      CLOUDY    43  38  80 W17       30.28R
6HR MIN TEMP:  43; 6HR MAX TEMP:  46;

PORT TOWNSEND  FAIR      36  36 100 W3        30.27R
NAS WHIDBEY    LGT RAIN  48  38  68 W33G43    30.27R
6HR MIN TEMP:  48; 6HR MAX TEMP:  51; 6HR PCP: TRACE;

ARLINGTON      CLOUDY    44  37  76 VRB3G17   30.27R
6HR MIN TEMP:  42; 6HR MAX TEMP:  47; 6HR PCP:  0.03;

BURLINGTON     CLOUDY    45  39  81 W12G26    30.22R
$$

WAZ020-022-039-040-504-511-512-240700-
SOUTHWEST INTERIOR

CITY           SKY/WX    TMP DP  RH WIND       PRES   REMARKS
SHELTON        PTCLDY    40  36  86 SW26G33   30.33R
6HR MIN TEMP:  40; 6HR MAX TEMP:  42; 6HR PCP:  0.03;

OLYMPIA        CLOUDY    40  37  89 SW10      30.39R
6HR MIN TEMP:  40; 6HR MAX TEMP:  46; 6HR PCP:  0.07;

CHEHALIS       CLOUDY    41  39  93 SW7G13    30.45R
KELSO          LGT RAIN  41  37  86 SW8       30.50R FOG
6HR MIN TEMP:  40; 6HR MAX TEMP:  48; 6HR PCP:  0.12;

VANCOUVER      CLOUDY    44  34  67 SW8       30.50R
6HR MIN TEMP:  43; 6HR MAX TEMP:  48; 6HR PCP: TRACE;

SCAPPOOSE, OR  CLOUDY    40  37  89 SW5       30.51R
6HR MIN TEMP:  40; 6HR MAX TEMP:  46; 6HR PCP:  0.05;

PORTLAND, OR   CLOUDY    44  34  67 W7        30.51R
6HR MIN TEMP:  43; 6HR MAX TEMP:  49; 6HR PCP: TRACE;

$$

WAZ021-516-517-240700-
WASHINGTON COAST

CITY           SKY/WX    TMP DP  RH WIND       PRES   REMARKS
FORKS          LGT RAIN  42  34  73 W12G22    30.37R
6HR MIN TEMP:  41; 6HR MAX TEMP:  44; 6HR PCP:  0.05;

HOQUIAM        CLOUDY    43  34  70 W18       30.40R
6HR MIN TEMP:  42; 6HR MAX TEMP:  46; 6HR PCP:  0.05;

ASTORIA, OR    CLOUDY    44  31  60 W15       30.47R
6HR MIN TEMP:  41; 6HR MAX TEMP:  45; 6HR PCP:  0.04;

$$

WAZ019-023-024-040-567>569-240700-
CASCADE MOUNTAINS AND COLUMBIA GORGE

CITY           SKY/WX    TMP DP  RH WIND       PRES   REMARKS
STAMPEDE PASS  LGT SNOW  29  26  89 W13G37    30.11R VSB 3/4 WCI  19
6HR MIN TEMP:  29; 6HR MAX TEMP:  30; 6HR PCP:  0.75;

TROUTDALE, OR  LGT RAIN  44  34  67 W8        30.50R
6HR MIN TEMP:  44; 6HR MAX TEMP:  48; 6HR PCP: TRACE;

HOOD RIVER, OR PTCLDY    39  34  81 W3        30.39R
THE DALLES, OR PTCLDY    42  33  70 W24G30    30.36R
6HR MIN TEMP:  40; 6HR MAX TEMP:  45; 6HR PCP: TRACE;

$$

WAZ026-027-041>044-520-521-240700-
EAST SLOPES

CITY           SKY/WX    TMP DP  RH WIND       PRES   REMARKS
OMAK           PTCLDY    38  27  64 S10       30.03R
6HR MIN TEMP:  37; 6HR MAX TEMP:  49;

WENATCHEE      CLEAR     39  27  62 NW12      30.10R
6HR MIN TEMP:  39; 6HR MAX TEMP:  46;

ELLENSBURG     PTCLDY    35  29  78 W7        30.17R
6HR MIN TEMP:  34; 6HR MAX TEMP:  45;

YAKIMA         CLEAR     36  24  62 CALM      30.22R
6HR MIN TEMP:  35; 6HR MAX TEMP:  51;

SUNNYSIDE ARPT CLEAR     42  29  60 SW21G29   30.25R
6HR MIN TEMP:  42; 6HR MAX TEMP:  49;

YAKIMA TC      FAIR      41  23  49 SW17      30.18R
6HR MIN TEMP:  40; 6HR MAX TEMP:  46; 6HR PCP:  0.02;

$$

WAZ028-034-035-240700-
COLUMBIA BASIN

CITY           SKY/WX    TMP DP  RH WIND       PRES   REMARKS
EPHRATA        CLEAR     36  25  64 S8        30.09R
6HR MIN TEMP:  34; 6HR MAX TEMP:  50;

MOSES LAKE     CLEAR     43  27  53 W16       30.11R
6HR MIN TEMP:  42; 6HR MAX TEMP:  50;

PASCO          CLEAR     46  26  45 SW16G28   30.23R
6HR MIN TEMP:  43; 6HR MAX TEMP:  55;

RICHLAND ARPT  CLEAR     45  28  50 SW15G31   30.23R
6HR MIN TEMP:  44; 6HR MAX TEMP:  54;

HERMISTON, OR  CLEAR     43  29  57 W26G44    30.28R
6HR MIN TEMP:  41; 6HR MAX TEMP:  50;

$$

WAZ036>038-240700-
NORTHEAST WASHINGTON

CITY           SKY/WX    TMP DP  RH WIND       PRES   REMARKS
SPOKANE GEIGER MOCLDY    35  25  66 SW28G35   30.04R WCI  22
6HR MIN TEMP:  34; 6HR MAX TEMP:  43;

SPOKANE FELTS  MOCLDY    38  26  62 SW9G21    30.08R
6HR MIN TEMP:  38; 6HR MAX TEMP:  47;

FAIRCHILD AFB  PTCLDY    33  29  83 SW17G25   30.04R WCI  23
6HR MIN TEMP:  33; 6HR MAX TEMP:  43;

COEURDALENE,ID CLOUDY    37  26  64 SW21G30   30.04R
6HR MIN TEMP:  37; 6HR MAX TEMP:  40; 6HR PCP: TRACE;

DEER PARK      MOCLDY    36  26  67 SW9G18    30.04R
6HR MIN TEMP:  36; 6HR MAX TEMP:  42;

$$

WAZ029>033-240700-
SOUTHEAST WASHINGTON

CITY           SKY/WX    TMP DP  RH WIND       PRES   REMARKS
PULLMAN        PTCLDY    34  26  72 W26G38    30.13R WCI  21
6HR MIN TEMP:  34; 6HR MAX TEMP:  41;

LEWISTON, ID   CLOUDY    43  23  45 SW9       30.18R
6HR MIN TEMP:  41; 6HR MAX TEMP:  49;

WALLA WALLA    PTCLDY    39  28  64 S16       30.28R
6HR MIN TEMP:  39; 6HR MAX TEMP:  47;

PENDLETON, OR  CLEAR     40  26  57 W30G44    30.24R
6HR MIN TEMP:  39; 6HR MAX TEMP:  48;

$$



USA.gov is the U.S. government's official web portal to all federal, state and local government web resources and services.